[[{"header":{"parameterUnit":"m.s-1","parameterCategory":1,"la1":30.2991,"la2":30.254,"lo1":-89.0895,"lo2":-89.0444,"dy":0.0017,"dx":0.0017,"nx":28,"ny":28,"refTime":"2024-05-09T21:00:00:Z","depth":0,"parameterNumber":2,"parameterNumberName":"U-component_of_WINDS"},"data":[0,0,0,0,0,0,0,0,0,0,0,0,0,0,0,0,0,0,0,0,0,0,0,0,0,0,0,0,0,0,0,0,0,0,0,0,0,0,0,0,0,0,0,0,0,0,0,0,0,0,0,0,0,0,0,0,0,0,-0.9105,-0.9105,0,-0.9068,-0.9067,-0.9067,-0.9068,-0.9069,-0.9069,-0.907,-0.9026,-0.9024,-0.9023,0,0,0,0,0,0,0,0,0,0,0,0,0,-0.9174,-0.9172,-0.9105,-0.9105,-0.9104,-0.9068,-0.9067,-0.9067,-0.9068,-0.9069,-0.907,-0.907,-0.9026,-0.9024,-0.9022,0,0,0,0,0,0,0,0,0,0,0,0,0,-0.9141,-0.9172,-0.9105,-0.9101,-0.91,-0.9068,-0.9067,-0.9067,-0.9068,-0.9069,-0.907,-0.907,-0.9027,-0.9025,-0.9022,-0.899,0,0,-0.9015,-0.9013,0,0,0,0,0,0,0,0,-0.9142,-0.9138,-0.9102,-0.9101,-0.91,-0.9074,-0.9075,-0.9041,-0.9068,-0.908,-0.907,-0.9071,-0.9041,-0.9037,-0.9028,-0.8988,-0.8986,-0.9014,-0.9013,-0.9012,-0.9011,0,0,0,0,0,0,0,-0.9145,-0.914,-0.909,-0.9101,-0.91,-0.9099,-0.9095,-0.9069,-0.9056,-0.9079,-0.9079,-0.9075,-0.904,-0.9031,-0.9027,-0.8986,-0.9014,-0.9012,-0.9011,-0.901,-0.8916,-0.8915,0,0,0,0,0,0,-0.9149,-0.9142,-0.9091,-0.9089,-0.9124,-0.9097,-0.9093,-0.9081,-0.9056,-0.9054,-0.9074,-0.9075,-0.9034,-0.903,-0.9026,-0.8985,-0.9012,-0.9009,-0.9008,-0.8917,-0.8916,-0.8915,0,0,0,0,0,0,-0.915,-0.9144,-0.9093,-0.9115,-0.9109,-0.9095,-0.9082,-0.908,-0.907,-0.9053,-0.905,-0.9067,-0.9035,-0.9029,-0.8999,-0.8984,-0.9008,-0.9006,-0.8918,-0.8917,-0.8915,-0.8906,0,0,0,0,0,0,-0.9152,-0.9145,-0.9134,-0.9115,-0.9108,-0.9069,-0.9081,-0.9079,-0.9067,-0.9067,-0.9045,-0.9042,-0.9035,-0.9003,-0.8997,-0.8981,-0.9004,-0.8919,-0.8918,-0.8916,-0.8907,-0.8904,-0.8901,0,0,0,0,0,-0.9155,-0.9132,-0.9133,-0.9127,-0.9094,-0.9068,-0.9063,-0.9057,-0.9065,-0.9053,-0.9042,-0.9043,-0.8987,-0.9,-0.8993,-0.8976,-0.892,-0.8918,-0.8916,-0.8909,-0.8905,-0.8901,0,0,0,0,0,0,-0.9147,-0.9129,-0.9131,-0.9101,-0.9086,-0.9068,-0.9053,-0.9054,-0.9034,-0.9036,-0.9027,-0.9022,-0.8992,-0.8981,-0.8996,-0.8943,-0.8954,-0.8951,-0.8951,-0.8947,-0.8944,-0.8947,-0.9002,0,0,0,0,0,-0.9143,-0.9125,-0.9109,-0.9085,-0.9077,-0.9067,-0.9055,-0.9052,-0.9035,-0.9028,-0.9015,-0.8997,-0.8975,-0.8961,-0.894,-0.8906,-0.89,-0.8891,-0.8888,-0.8886,-0.8882,-0.8862,-0.8857,-0.8908,-0.8908,-0.8908,0,0,-0.9132,-0.912,-0.9109,-0.9083,-0.9071,-0.9051,-0.9061,-0.9039,-0.9024,-0.9024,-0.8995,-0.8985,-0.8964,-0.8932,-0.8917,-0.8922,-0.8867,-0.8883,-0.8881,-0.8879,-0.8859,-0.8854,-0.885,-0.8906,-0.8906,-0.8907,0,0,-0.9102,-0.9092,-0.907,-0.9058,-0.904,-0.9033,-0.9028,-0.901,-0.9003,-0.8974,-0.8974,-0.8954,-0.8918,-0.8903,-0.889,-0.8855,-0.8854,-0.8848,-0.8832,-0.8812,-0.8808,-0.8805,-0.879,-0.8785,-0.8845,-0.8845,-0.8845,0,-0.9091,-0.9062,-0.9058,-0.9037,-0.9024,-0.9026,-0.9002,-0.899,-0.8966,-0.8956,-0.8963,-0.8917,-0.8903,-0.8866,-0.8858,-0.8848,-0.884,-0.885,-0.8809,-0.8806,-0.8802,-0.8788,-0.8783,-0.8844,-0.8844,-0.8844,-0.8844,0,-0.9048,-0.9028,-0.9012,-0.899,-0.8976,-0.8953,-0.8945,-0.8931,-0.8929,-0.892,-0.889,-0.8874,-0.8849,-0.8841,-0.8838,-0.8803,-0.8807,-0.8812,-0.8822,-0.8797,-0.8783,-0.8778,-0.8843,-0.8843,-0.8844,-0.8844,0,0,-0.9011,-0.8988,-0.8982,-0.8971,-0.8952,-0.8935,-0.8912,-0.889,-0.8877,-0.886,-0.8839,-0.8809,-0.8813,-0.8799,-0.8794,-0.8777,-0.8748,-0.8784,-0.8783,-0.8776,-0.8706,-0.8702,-0.8696,-0.8748,-0.8747,-0.8746,-0.8708,0,-0.8978,-0.8939,-0.8935,-0.8899,-0.8879,-0.888,-0.886,-0.8844,-0.8836,-0.8817,-0.8807,-0.8784,-0.8793,-0.8784,-0.8767,-0.8755,-0.8733,-0.8758,-0.8726,-0.8725,-0.873,-0.8689,-0.8684,-0.8648,-0.8703,-0.8702,-0.8701,0,-0.8934,-0.8917,-0.888,-0.8862,-0.8854,-0.8836,-0.8814,-0.8797,-0.8779,-0.8774,-0.8758,-0.8756,-0.873,-0.8743,-0.8706,-0.8723,-0.871,-0.8702,-0.87,-0.8695,-0.871,-0.8681,-0.8637,-0.8631,-0.8693,-0.8694,-0.8694,0,-0.8909,-0.8877,-0.885,-0.8841,-0.8821,-0.8808,-0.8798,-0.8781,-0.8768,-0.8749,-0.8739,-0.8717,-0.8704,-0.8686,-0.8677,-0.8688,-0.864,-0.8653,-0.8633,-0.8633,-0.8621,-0.8621,-0.8572,-0.8616,-0.8616,-0.8616,-0.8616,0,-0.8871,-0.8848,-0.8838,-0.8822,-0.8795,-0.879,-0.8763,-0.8754,-0.8739,-0.8719,-0.8718,-0.8699,-0.8689,-0.8668,-0.8661,-0.863,-0.8624,-0.8618,-0.8616,-0.8617,-0.8618,-0.8607,-0.8608,-0.8614,-0.8615,-0.8615,-0.8615,0,-0.8838,-0.8831,-0.8802,-0.8785,-0.878,-0.8761,-0.8746,-0.8728,-0.8721,-0.8695,-0.8689,-0.8676,-0.8651,-0.8641,-0.861,-0.8605,-0.8569,-0.8569,-0.8575,-0.8574,-0.8554,-0.8555,-0.8494,-0.8485,-0.8537,-0.8536,-0.8536,0,-0.8814,-0.8796,-0.8778,-0.8765,-0.8755,-0.8735,-0.8721,-0.8716,-0.8701,-0.8679,-0.8664,-0.864,-0.862,-0.8579,-0.8566,-0.8542,-0.8541,-0.8521,-0.8537,-0.8538,-0.8538,-0.8538,-0.8536,-0.8517,-0.8517,-0.8516,-0.8516,0,-0.8771,-0.8768,-0.875,-0.873,-0.8714,-0.8697,-0.8681,-0.8671,-0.8662,-0.8645,-0.8621,-0.8606,-0.8575,-0.8549,-0.8525,-0.8513,-0.8512,-0.8512,-0.8505,-0.8505,-0.8509,-0.8505,-0.8565,-0.8513,-0.8513,-0.8513,-0.8513,-0.8513,-0.874,-0.8723,-0.8708,-0.8687,-0.8674,-0.8659,-0.8642,-0.8633,-0.8613,-0.8588,-0.8585,-0.8558,-0.854,-0.8507,-0.8494,-0.8471,-0.8476,-0.8467,-0.8465,-0.8462,-0.846,-0.8514,-0.8467,-0.8467,-0.8467,-0.8467,-0.8467,0,-0.8695,-0.8685,-0.8666,-0.8644,-0.8627,-0.8631,-0.8613,-0.8598,-0.8575,-0.8558,-0.8539,-0.851,-0.8485,-0.847,-0.8445,-0.843,-0.8429,-0.8423,-0.8423,-0.842,-0.8458,-0.8465,-0.8425,-0.8425,-0.8425,-0.8425,-0.8425,-0.8425,-0.867,-0.8642,-0.8637,-0.8602,-0.8592,-0.8567,-0.8556,-0.8542,-0.8529,-0.8497,-0.8477,-0.8468,-0.8452,-0.8425,-0.8403,-0.8399,-0.8388,-0.8382,-0.8378,-0.8413,-0.8418,-0.8422,-0.8428,-0.8381,-0.838,-0.8342,-0.8341,-0.8341]},{"header":{"parameterUnit":"m.s-1","parameterCategory":1,"la1":30.2991,"la2":30.254,"lo1":-89.0895,"lo2":-89.0444,"dy":0.0017,"dx":0.0017,"nx":28,"ny":28,"refTime":"2024-05-09T21:00:00:Z","depth":0,"parameterNumber":3,"parameterNumberName":"V-component_of_WINDS"},"data":[0,0,0,0,0,0,0,0,0,0,0,0,0,0,0,0,0,0,0,0,0,0,0,0,0,0,0,0,0,0,0,0,0,0,0,0,0,0,0,0,0,0,0,0,0,0,0,0,0,0,0,0,0,0,0,0,0,0,4.9995,4.9996,0,5.0167,5.0169,5.0171,5.0204,5.0202,5.0201,5.02,5.0376,5.0381,5.0387,0,0,0,0,0,0,0,0,0,0,0,0,0,4.9696,4.9701,4.9994,4.9996,4.9999,5.0167,5.0169,5.0171,5.0204,5.0202,5.0201,5.0199,5.0374,5.0381,5.0388,0,0,0,0,0,0,0,0,0,0,0,0,0,4.9843,4.9703,4.9994,5.0035,5.0041,5.0166,5.0169,5.0172,5.0204,5.0202,5.02,5.0198,5.0371,5.038,5.0389,5.0485,0,0,5.0416,5.042,0,0,0,0,0,0,0,0,4.9834,4.9854,5.0027,5.0033,5.0039,5.0162,5.0128,5.0277,5.0205,5.0142,5.02,5.0197,5.0306,5.032,5.0357,5.0493,5.0501,5.0417,5.0422,5.0426,5.0429,0,0,0,0,0,0,0,4.9824,4.9846,5.0063,5.0029,5.0037,5.0046,5.0065,5.0157,5.0233,5.0147,5.015,5.017,5.0309,5.0348,5.0361,5.0503,5.0417,5.0425,5.043,5.0434,5.0733,5.0736,0,0,0,0,0,0,4.9807,4.9838,5.0057,5.0068,4.993,5.0053,5.0074,5.0124,5.0233,5.0247,5.0172,5.0171,5.0334,5.0351,5.0368,5.0491,5.0426,5.0435,5.044,5.0731,5.0734,5.0736,0,0,0,0,0,0,4.98,4.9826,5.005,4.9954,4.9983,5.006,5.0117,5.0129,5.0168,5.0251,5.0265,5.0198,5.0333,5.0355,5.0457,5.0497,5.0439,5.0447,5.0727,5.0731,5.0735,5.0736,0,0,0,0,0,0,4.9791,4.9823,4.9859,4.9954,4.9988,5.0135,5.0119,5.0134,5.0184,5.0184,5.0279,5.0293,5.0333,5.0443,5.0466,5.0509,5.0454,5.0724,5.0729,5.0734,5.0733,5.0739,5.0745,0,0,0,0,0,4.9781,4.9852,4.9861,4.9887,5.0035,5.0138,5.0157,5.0202,5.0187,5.0225,5.0279,5.029,5.0489,5.0454,5.0479,5.0525,5.0722,5.0728,5.0733,5.073,5.0738,5.0745,0,0,0,0,0,0,4.9758,4.9865,4.9876,4.998,5.005,5.0143,5.0192,5.0209,5.0284,5.0281,5.0334,5.0355,5.0455,5.05,5.0458,5.0627,5.0605,5.0616,5.0593,5.0602,5.0608,5.0595,5.0461,0,0,0,0,0,4.9765,4.9839,4.9929,5.0012,5.0046,5.0113,5.0159,5.0189,5.0263,5.0292,5.0354,5.0425,5.0505,5.0556,5.0633,5.074,5.0763,5.0785,5.0791,5.0795,5.0805,5.0869,5.0881,5.0756,5.0756,5.0755,0,0,4.978,4.9848,4.9891,5.0009,5.0066,5.0144,5.0138,5.0218,5.0276,5.0304,5.0405,5.0453,5.0537,5.0643,5.0693,5.0684,5.0845,5.0803,5.0806,5.0813,5.0876,5.0888,5.0898,5.076,5.0759,5.0758,0,0,4.9848,4.9906,4.9983,5.0042,5.013,5.0175,5.0194,5.0286,5.0319,5.0421,5.0446,5.0516,5.0651,5.0711,5.0759,5.0856,5.087,5.0879,5.0912,5.0974,5.0984,5.0993,5.103,5.1043,5.0888,5.0888,5.0888,0,4.9856,4.9973,5.0021,5.0102,5.0155,5.0186,5.0266,5.0321,5.0429,5.0465,5.0454,5.0627,5.0685,5.0808,5.0832,5.0869,5.0894,5.0869,5.0979,5.0988,5.0997,5.1034,5.1047,5.0889,5.0889,5.0889,5.0889,0,4.998,5.0061,5.0113,5.0219,5.0278,5.0358,5.042,5.0473,5.0499,5.0546,5.0652,5.0724,5.0818,5.0849,5.0874,5.0977,5.097,5.0968,5.0947,5.1009,5.1045,5.1059,5.089,5.089,5.089,5.0889,0,0,5.0035,5.0171,5.0189,5.024,5.0341,5.0405,5.0489,5.0582,5.0629,5.0704,5.0777,5.0892,5.0893,5.0948,5.098,5.1034,5.1111,5.1027,5.103,5.1042,5.1233,5.1235,5.125,5.1121,5.1124,5.1126,5.1227,0,5.0117,5.0267,5.0315,5.044,5.0518,5.0551,5.0624,5.0695,5.0742,5.0816,5.0868,5.095,5.0943,5.0977,5.1033,5.109,5.115,5.1083,5.1191,5.1195,5.117,5.1268,5.1269,5.136,5.1241,5.1243,5.1245,0,5.0231,5.0311,5.0444,5.0541,5.0575,5.064,5.0732,5.0801,5.0884,5.0915,5.0979,5.1008,5.1099,5.1073,5.1201,5.1154,5.1202,5.1237,5.1242,5.1255,5.1224,5.1285,5.139,5.1405,5.1266,5.1265,5.1263,0,5.0262,5.0402,5.0501,5.0543,5.0657,5.0703,5.0752,5.0833,5.0888,5.0969,5.1006,5.1096,5.1146,5.1216,5.127,5.1245,5.1394,5.1372,5.1424,5.1423,5.1454,5.1451,5.157,5.1482,5.1482,5.1481,5.1481,0,5.0349,5.043,5.0517,5.0578,5.0671,5.0727,5.0818,5.087,5.0943,5.1016,5.1049,5.1118,5.1184,5.1262,5.1304,5.1406,5.1427,5.1456,5.1467,5.1454,5.1451,5.1487,5.1482,5.1485,5.1484,5.1484,5.1483,0,5.0398,5.046,5.0571,5.0671,5.0699,5.0763,5.085,5.0911,5.0961,5.1054,5.1079,5.1157,5.1251,5.1312,5.1431,5.146,5.1572,5.158,5.1544,5.1549,5.1599,5.1595,5.1746,5.177,5.1664,5.1665,5.1666,0,5.045,5.0514,5.0622,5.0674,5.0725,5.0808,5.0865,5.0924,5.0982,5.1084,5.1135,5.1231,5.1311,5.146,5.1528,5.1621,5.1632,5.168,5.1646,5.1633,5.1636,5.1633,5.1641,5.1685,5.1686,5.1686,5.1687,0,5.0537,5.0565,5.0646,5.074,5.0808,5.0884,5.096,5.1001,5.1073,5.1137,5.1235,5.1297,5.1421,5.1517,5.1617,5.1669,5.1692,5.1697,5.1715,5.1703,5.168,5.1696,5.156,5.1693,5.1692,5.1692,5.1692,5.1691,5.0591,5.065,5.0738,5.0828,5.0892,5.0964,5.1028,5.1088,5.117,5.1276,5.1306,5.1408,5.1494,5.1631,5.1686,5.1768,5.1762,5.1787,5.1793,5.1799,5.1801,5.1667,5.1786,5.1786,5.1786,5.1786,5.1786,0,5.0681,5.074,5.0823,5.093,5.1002,5.1018,5.1104,5.1164,5.1254,5.1332,5.1412,5.1526,5.1621,5.1698,5.1797,5.1848,5.1861,5.1872,5.1869,5.1882,5.1799,5.1775,5.186,5.186,5.186,5.186,5.186,5.186,5.0737,5.084,5.088,5.1017,5.1075,5.1176,5.1225,5.1292,5.1356,5.1482,5.1562,5.1612,5.1691,5.1797,5.1886,5.1906,5.1942,5.1952,5.1974,5.1895,5.1887,5.1879,5.1857,5.1958,5.1958,5.2051,5.2052,5.2053]}]]